Regional Weather Roundup
Issued by NWS Cleveland, OH

Home | Current Version | Previous Version | Graphics & Text | Print | Product List | Glossary On
Versions: 1 2 3 4 5 6 7 8 9 10 11 12 13 14 15 16 17 18 19 20 21 22 23 24 25 26 27 28 29 30 31 32 33 34 35 36 37 38 39 40 41 42 43 44 45 46 47 48 49 50
000
ASUS41 KCLE 230910
RWRCLE
OHIO REGIONAL WEATHER ROUNDUP
NATIONAL WEATHER SERVICE CLEVELAND, OH
400 AM EST FRI FEB 23 2018

NOTE: "FAIR" INDICATES FEW OR NO CLOUDS BELOW 12,000 FEET WITH NO
SIGNIFICANT WEATHER AND/OR OBSTRUCTIONS TO VISIBILITY.

OHZ001>008-015>018-024>027-034-035-043-044-231000-
   NORTHWEST OHIO

CITY           SKY/WX    TMP DP  RH WIND       PRES   REMARKS
DEFIANCE       CLOUDY    34  32  92 E8        30.30F FOG     WCI  27
FINDLAY        CLOUDY    38  35  89 NE5       30.29F FOG
TOLEDO EXPRESS CLOUDY    34  34 100 E6        30.31F FOG     WCI  29
TOLEDO EXEC    CLOUDY    34  33  96 E8        30.32F FOG     WCI  27
LIMA           FOG       39  39 100 SE12      30.24F VSB 1
$$

OHZ009>014-019>023-028>033-038-089-231000-
   NORTHEAST OHIO

CITY           SKY/WX    TMP DP  RH WIND       PRES   REMARKS
CLE-HOPKINS    CLOUDY    40  39  97 SE3       30.34F FOG
CLE-LAKEFRONT  CLOUDY    37  35  92 N6        30.32F FOG
CUY CO. ARPT   NOT AVBL
LORAIN-ELYRIA  CLOUDY    37  32  82 E6        30.31F HAZE
ASHTABULA      CLOUDY    40  39  97 SE7       30.34F
AKRON-CANTON   FOG       42  39  89 SE10      30.31F VSB 3/4
WOOSTER        CLOUDY    40  40 100 S7        30.32S FOG
MANSFIELD      CLOUDY    40  40 100 S9        30.29F FOG
YOUNGSTOWN     CLOUDY    40  39  97 SE10      30.32F FOG
$$

OHZ042-051>053-060>062-070>072-077>081-231000-
  SOUTHWEST OHIO

CITY           SKY/WX    TMP DP  RH WIND       PRES   REMARKS
CINC-COVINGTON LGT RAIN  47  47 100 E5        30.28F VSB 1/2
CINC-LUNKEN    LGT RAIN  47  46  97 CALM      30.30F FOG
HAMILTON       LGT RAIN  46  46 100 CALM      30.31S FOG
DAYTON         LGT RAIN  44  44 100 SE9       30.28F VSB 1/4
WRIGHT-PAT AFB LGT RAIN  44  43  96 SE5       30.28F FOG
DAYTON GENERAL LGT RAIN  46  45  96 SE5       30.28F VSB 1/2
WILMINGTON     LGT RAIN  45  45 100 SE6       30.29F FOG
$$

OHZ036-037-039>041-045>050-054>059-063>069-073>076-082>088-231000-
  CENTRAL AND SOUTHEAST OHIO

CITY           SKY/WX    TMP DP  RH WIND       PRES   REMARKS
COLUMBUS       FOG       43  43 100 SE6       30.31F VSB 1
OSU AIRPORT    CLOUDY    42  42 100 SE6       30.30F FOG
BOLTON FIELD   FOG       42  42 100 SE5       30.31F VSB 3/4
RICKENBACK AFB CLOUDY    42  42 100 CALM      30.32S FOG
NEWARK         CLOUDY    42  41  96 CALM      30.32F FOG
MARION         CLOUDY    41  40  96 S10       30.29F FOG
LANCASTER      CLOUDY    43  43 100 SE3       30.33S
ZANESVILLE     CLOUDY    42  40  92 CALM      30.33F FOG
NEW PHILLY     NOT AVBL
$$




USA.gov is the U.S. government's official web portal to all federal, state and local government web resources and services.